Location: Stoke Bliss
(52.2667°N, 2.5167°W)
Time: 17:40:48
(UTC+00:00)

N. Korean satellite - Pass Details

Date: 04 December 2021
Orbit: 446 x 492 km, 97.3° (Epoch: 16 January)

Event Time Altitude Azimuth Distance (km) Brightness Sun altitude
Rises 16:54:54 0° 184° (S) 2,531 10.6 -8.1°
Reaches altitude 10° 16:57:04 10° 192° (SSW) 1,648 9.8 -8.4°
Maximum altitude 17:00:24 38° 262° (W) 740 8.2 -8.8°
Drops below altitude 10° 17:03:42 10° 332° (NNW) 1,634 9.3 -9.3°
Sets 17:05:57 0° 341° (NNW) 2,550 10.2 -9.6°
